Tracking 30922 objects as of 1-Jul-2025
HD Live streaming from Space Station
objects crossing your sky now

NOAA 16 DEB

Track NOAA 16 DEB now!
10-day predictions


NORAD ID: 41258
Int'l Code: 2000-055FJ
Perigee: 687.1 km
Apogee: 751.4 km
Inclination: 99.0 °
Period: 99.0 minutes
Semi major axis: 7090 km
RCS: Unknown
Launch date: September 21, 2000
Source: United States (US)
Launch site: AIR FORCE WESTERN TEST RANGE (AFWTR)

Note: This is SATELLITE DEBRIS
Your satellite tracking list
Your tracking list is empty




NASA's NSSDC Master Catalog

Two Line Element Set (TLE):
1 41258U 00055FJ  25181.43813951  .00005611  00000-0  13200-2 0  9992
2 41258  99.0022  53.2183 0045333  41.0765 319.3829 14.54164747495294
Source of the keplerian elements: AFSPC